GW5903 Weather Reports


time (UTC)temp
F
wind
direction
speed
knots
gust
knots
rain 1hr
in
rain 24hr
in
rain mn
in
humidity
%
barometer
mb
20260506202540 59 236 7.0 15.6 0.00 0.03 0.00 35 1016.7
20260506202038 58 301 9.6 16.5 0.00 0.03 0.00 35 1016.8
20260506201553 58 242 10.4 16.5 0.00 0.03 0.00 35 1016.8
20260506201038 58 262 7.8 16.5 0.00 0.03 0.00 34 1016.9
20260506200543 60 295 8.7 15.6 0.00 0.03 0.00 35 1016.9
20260506200039 58 282 7.0 13.9 0.00 0.03 0.00 36 1017.0
20260506195538 58 258 7.8 18.2 0.00 0.03 0.00 35 1017.1
20260506195040 60 284 12.2 18.2 0.00 0.03 0.00 33 1017.2
20260506194603 58 270 12.2 20.0 0.00 0.03 0.00 34 1017.3
20260506194046 60 244 13.0 20.0 0.00 0.03 0.00 34 1017.2
20260506193537 59 290 12.2 21.7 0.00 0.03 0.00 32 1017.2
20260506193057 61 267 12.2 21.7 0.00 0.03 0.00 33 1017.2
20260506192537 61 250 13.9 21.7 0.00 0.03 0.00 33 1017.3
20260506192041 62 286 12.2 21.7 0.00 0.03 0.00 30 1017.4
20260506191546 61 299 13.0 19.1 0.00 0.03 0.00 32 1017.4
20260506191041 61 281 11.3 19.1 0.00 0.03 0.00 32 1017.5
20260506190538 60 255 11.3 20.0 0.00 0.03 0.00 32 1017.5
20260506190049 60 300 13.9 20.0 0.00 0.03 0.00 33 1017.5
20260506185538 59 275 12.2 21.7 0.00 0.03 0.00 33 1017.5
20260506185041 60 267 14.8 21.7 0.00 0.03 0.00 33 1017.6
20260506184549 59 268 10.4 24.3 0.00 0.03 0.00 33 1017.5
20260506184038 60 257 14.8 24.3 0.00 0.03 0.00 33 1017.6
20260506183538 59 261 13.9 20.9 0.00 0.03 0.00 32 1017.7
20260506183046 59 256 9.6 18.2 0.00 0.03 0.00 34 1017.6
20260506182538 58 300 12.2 19.1 0.00 0.03 0.00 35 1017.7
20260506182037 59 269 13.9 19.1 0.00 0.03 0.00 33 1017.7
20260506181551 58 313 11.3 21.7 0.00 0.03 0.00 33 1017.8
20260506181038 58 234 14.8 21.7 0.00 0.03 0.00 36 1017.9
20260506180541 58 262 10.4 17.4 0.00 0.03 0.00 34 1017.8
20260506180054 58 282 13.0 20.9 0.00 0.03 0.00 38 1017.9
20260506175538 57 262 11.3 24.3 0.00 0.03 0.00 37 1018.0
20260506175040 57 256 12.2 24.3 0.00 0.03 0.00 39 1018.1
20260506174545 56 236 11.3 19.1 0.00 0.03 0.00 40 1018.0
20260506174038 56 248 9.6 19.1 0.00 0.03 0.00 41 1018.1
20260506173539 56 274 11.3 19.1 0.00 0.03 0.00 39 1018.2
20260506173050 56 290 12.2 18.2 0.00 0.03 0.00 41 1018.0
20260506172539 55 257 9.6 17.4 0.00 0.03 0.00 42 1017.9
20260506172039 55 244 9.6 17.4 0.00 0.03 0.00 43 1017.9
20260506171556 54 262 10.4 19.1 0.00 0.03 0.00 44 1018.1
20260506171040 54 259 11.3 19.1 0.00 0.03 0.00 44 1018.1
20260506170540 54 224 12.2 17.4 0.00 0.03 0.00 44 1017.9
20260506170052 54 252 12.2 20.0 0.00 0.03 0.00 45 1017.9
20260506165539 53 254 10.4 20.0 0.00 0.03 0.00 48 1018.0
20260506165038 53 246 11.3 16.5 0.00 0.03 0.00 45 1017.7
20260506164603 53 268 8.7 17.4 0.00 0.03 0.00 47 1017.8
20260506164041 53 252 11.3 20.9 0.00 0.03 0.00 45 1017.9
20260506163537 53 269 10.4 20.9 0.00 0.03 0.00 49 1017.9
20260506163048 51 295 11.3 17.4 0.00 0.03 0.00 47 1017.9
20260506162539 52 262 9.6 18.2 0.00 0.03 0.00 47 1017.9
20260506162038 52 246 11.3 18.2 0.00 0.03 0.00 50 1017.9
20260506161553 52 288 10.4 15.6 0.00 0.03 0.00 49 1017.8
20260506161038 51 252 12.2 16.5 0.00 0.03 0.00 50 1017.7
20260506160538 51 250 11.3 16.5 0.00 0.03 0.00 51 1017.7
20260506160049 50 255 10.4 18.2 0.00 0.03 0.00 52 1017.7
20260506155538 50 245 12.2 18.2 0.00 0.03 0.00 53 1017.6
20260506155041 50 267 12.2 17.4 0.00 0.03 0.00 52 1017.7
20260506154601 50 257 9.6 17.4 0.00 0.03 0.00 53 1017.7
20260506154038 50 271 11.3 19.1 0.00 0.03 0.00 55 1017.8
20260506153538 48 263 13.9 20.0 0.00 0.03 0.00 56 1017.8
20260506153049 48 269 13.9 20.0 0.00 0.03 0.00 57 1017.6
20260506152537 48 248 13.9 20.0 0.00 0.03 0.00 57 1017.5
20260506152037 48 246 14.8 20.0 0.00 0.03 0.00 55 1017.5
20260506151550 47 250 14.8 20.0 0.00 0.03 0.00 58 1017.4
20260506151038 48 252 13.0 19.1 0.00 0.03 0.00 60 1017.3
20260506150538 47 267 13.0 18.2 0.00 0.03 0.00 59 1017.5
20260506150051 47 246 13.0 17.4 0.00 0.03 0.00 59 1017.6
20260506145540 47 257 12.2 16.5 0.00 0.03 0.00 60 1017.7
20260506145039 46 253 11.3 16.5 0.00 0.03 0.00 61 1017.6
20260506144600 46 269 11.3 17.4 0.00 0.03 0.00 62 1017.7
20260506144038 45 271 13.0 17.4 0.00 0.03 0.00 63 1017.7
20260506143538 45 255 13.0 19.1 0.00 0.03 0.00 63 1017.6
20260506143049 44 262 14.8 19.1 0.00 0.03 0.00 64 1017.7
20260506142538 44 261 13.9 17.4 0.00 0.03 0.00 65 1017.7
20260506142038 44 256 12.2 18.2 0.00 0.03 0.00 67 1017.6
20260506141548 44 254 14.8 18.2 0.00 0.03 0.00 66 1017.7
20260506141038 43 267 13.0 19.1 0.00 0.03 0.00 67 1017.6
20260506140541 43 263 14.8 19.1 0.00 0.03 0.00 65 1017.5
20260506140100 43 259 13.9 17.4 0.00 0.03 0.00 67 1017.3
20260506135541 43 259 10.4 14.8 0.00 0.03 0.00 68 1017.6
20260506135040 43 260 10.4 15.6 0.00 0.03 0.00 68 1017.6
20260506134546 42 260 11.3 16.5 0.00 0.03 0.00 69 1017.5
20260506134040 42 248 12.2 18.2 0.00 0.03 0.00 70 1017.5
20260506133540 42 257 13.9 19.1 0.00 0.03 0.00 70 1017.4
20260506133052 41 277 13.0 20.9 0.00 0.03 0.00 69 1017.2
20260506132540 42 252 14.8 20.9 0.00 0.03 0.00 70 1017.1
20260506132044 41 246 14.8 20.0 0.00 0.03 0.00 70 1017.0
20260506131544 41 269 14.8 20.0 0.00 0.03 0.00 69 1017.4
20260506131041 41 259 13.0 19.1 0.00 0.03 0.00 70 1017.3
20260506130541 41 263 12.2 19.1 0.00 0.03 0.00 72 1017.4
20260506130050 40 249 11.3 19.1 0.00 0.03 0.00 72 1017.4
20260506125540 40 267 13.9 21.7 0.00 0.03 0.00 73 1017.3
20260506125040 40 267 15.6 21.7 0.00 0.03 0.00 74 1016.9
20260506124552 39 267 12.2 16.5 0.00 0.03 0.00 75 1016.9
20260506124040 39 271 13.0 16.5 0.00 0.03 0.00 75 1016.7
20260506123543 39 259 10.4 13.9 0.00 0.03 0.00 76 1016.9
20260506123046 38 268 8.7 13.9 0.00 0.03 0.00 76 1017.3
20260506122540 38 292 7.0 10.4 0.00 0.03 0.00 77 1017.2
20260506122039 38 294 5.2 10.4 0.00 0.03 0.00 77 1017.2
20260506121545 37 294 7.0 10.4 0.00 0.03 0.00 78 1017.1
20260506121040 37 298 6.1 8.7 0.00 0.03 0.00 79 1016.9
20260506120544 36 292 4.3 8.7 0.00 0.03 0.00 80 1016.9
20260506120046 36 294 4.3 7.0 0.00 0.03 0.00 80 1016.9
20260506115541 36 293 2.6 5.2 0.00 0.03 0.00 80 1016.7
20260506115041 36 288 2.6 5.2 0.00 0.03 0.00 80 1016.7
20260506114556 36 290 3.5 6.1 0.00 0.03 0.00 80 1016.8
20260506114040 36 295 3.5 6.1 0.00 0.03 0.00 79 1016.8
20260506113540 36 297 4.3 6.1 0.00 0.03 0.00 79 1016.7
20260506113048 37 307 3.5 6.1 0.00 0.03 0.00 79 1016.7
20260506112540 37 300 3.5 6.1 0.00 0.03 0.00 78 1016.7
20260506112040 37 302 3.5 6.1 0.00 0.03 0.00 77 1016.6
20260506111551 37 302 4.3 7.0 0.00 0.03 0.00 77 1016.7
20260506111044 38 303 3.5 8.7 0.00 0.03 0.00 77 1016.7
20260506110540 38 311 5.2 8.7 0.00 0.03 0.00 76 1016.5
20260506110048 38 303 5.2 8.7 0.00 0.03 0.00 76 1016.6
20260506105537 38 298 5.2 8.7 0.00 0.03 0.00 76 1016.7
20260506105039 38 301 6.1 9.6 0.00 0.03 0.00 76 1016.4
20260506104557 38 281 6.1 9.6 0.00 0.03 0.00 77 1016.5
20260506104039 38 306 5.2 9.6 0.00 0.03 0.00 78 1016.5
20260506103537 38 299 5.2 9.6 0.00 0.03 0.00 77 1016.3
20260506103058 38 294 5.2 8.7 0.00 0.03 0.00 77 1016.3
20260506102539 39 291 6.1 8.7 0.00 0.03 0.00 76 1016.2
20260506102039 39 300 6.1 8.7 0.00 0.03 0.00 76 1016.1
20260506101551 39 298 6.1 9.6 0.00 0.03 0.00 75 1016.2
20260506101039 40 294 7.0 9.6 0.00 0.03 0.00 75 1016.2
20260506100539 40 296 6.1 9.6 0.00 0.03 0.00 75 1016.1
20260506100053 40 299 6.1 10.4 0.00 0.03 0.00 75 1016.1
20260506095540 40 286 6.1 10.4 0.00 0.03 0.00 74 1016.2
20260506095040 41 296 6.1 10.4 0.00 0.03 0.00 74 1016.1
20260506094548 41 298 7.0 10.4 0.00 0.03 0.00 74 1016.1
20260506094037 40 265 7.8 10.4 0.00 0.03 0.00 74 1016.2
20260506093539 40 284 7.8 10.4 0.00 0.03 0.00 75 1016.1
20260506093043 40 279 7.0 9.6 0.00 0.03 0.00 75 1016.2
20260506092538 40 262 6.1 9.6 0.00 0.03 0.00 75 1016.1
20260506092039 40 275 7.0 8.7 0.00 0.03 0.00 74 1016.0
20260506091550 41 258 6.1 8.7 0.00 0.03 0.00 73 1016.1
20260506091040 41 255 4.3 7.8 0.00 0.03 0.00 72 1016.0
20260506090538 41 267 6.1 10.4 0.00 0.03 0.00 71 1016.0
20260506090042 41 290 5.2 10.4 0.00 0.03 0.00 71 1016.0
20260506085537 41 287 5.2 7.8 0.00 0.03 0.00 71 1016.1
20260506085037 41 290 4.3 9.6 0.00 0.03 0.00 71 1016.0
20260506084553 41 298 6.1 9.6 0.00 0.03 0.00 72 1016.1
20260506084038 41 311 4.3 10.4 0.00 0.03 0.00 73 1016.1
20260506083539 41 281 7.0 10.4 0.00 0.03 0.00 72 1016.2
20260506083051 42 269 7.8 9.6 0.00 0.03 0.00 70 1016.3
20260506082539 43 280 6.1 12.2 0.00 0.03 0.00 67 1016.2
20260506082038 44 273 7.8 12.2 0.00 0.03 0.00 65 1016.2
20260506081549 44 280 7.0 11.3 0.00 0.03 0.00 62 1016.3
20260506081040 45 273 7.8 16.5 0.00 0.03 0.00 61 1016.3
20260506080538 45 286 10.4 16.5 0.00 0.03 0.00 60 1016.3
20260506073050 44 319 7.8 11.3 0.00 0.03 0.00 64 1016.3
20260506072538 44 315 7.0 11.3 0.00 0.03 0.00 64 1016.4
20260506072037 45 305 7.0 13.0 0.00 0.03 0.00 64 1016.4
20260506071550 45 286 8.7 13.0 0.00 0.03 0.00 64 1016.2
20260506071038 45 296 7.8 10.4 0.00 0.03 0.00 64 1016.3
20260506070538 45 298 7.0 10.4 0.00 0.03 0.00 65 1016.5
20260506062039 43 123 3.5 6.1 0.00 0.03 0.00 74 1016.6
20260506061553 43 113 3.5 4.3 0.00 0.03 0.00 71 1016.4
20260506061041 44 294 0.0 7.0 0.00 0.03 0.00 69 1016.4
20260506060539 45 294 3.5 10.4 0.00 0.03 0.00 66 1016.3
20260506051043 44 309 7.8 14.8 0.01 0.03 0.03 72 1016.3
20260506050538 45 325 9.6 17.4 0.02 0.03 0.03 72 1016.2
20260506045040 44 346 11.3 17.4 0.03 0.03 0.03 73 1016.0
20260506044619 44 324 10.4 14.8 0.03 0.03 0.03 74 1015.8
20260506044038 44 333 6.1 10.4 0.03 0.03 0.03 74 1015.9
20260506043538 44 317 6.1 11.3 0.03 0.03 0.03 74 1015.9
20260506043046 44 323 7.8 19.1 0.03 0.03 0.03 76 1015.8
20260506042539 44 334 11.3 19.1 0.03 0.03 0.03 76 1015.7
20260506042039 44 339 12.2 16.5 0.03 0.03 0.03 76 1015.8
20260506041549 44 331 11.3 17.4 0.03 0.03 0.03 77 1015.7
20260506041039 44 350 12.2 17.4 0.02 0.02 0.02 76 1015.4
20260506040539 44 326 13.0 17.4 0.01 0.01 0.01 77 1015.6
20260506040046 44 334 13.0 20.9 0.01 0.01 0.01 75 1015.5
20260506035536 45 339 14.8 21.7 0.00 0.00 0.00 73 1015.5
20260506035036 46 342 16.5 21.7 0.00 0.00 0.00 69 1015.2
20260506034543 46 5 13.0 21.7 0.00 0.00 0.00 69 1014.9
20260506034036 46 342 16.5 21.7 0.00 0.00 0.00 68 1014.9
20260506033537 46 350 15.6 24.3 0.00 0.00 0.00 68 1014.7
20260506033047 46 317 17.4 24.3 0.00 0.00 0.00 68 1014.2
20260506032540 46 346 15.6 25.2 0.00 0.00 0.00 68 1014.7
20260506032042 46 5 18.2 25.2 0.00 0.00 0.00 68 1014.5
20260506031543 46 339 17.4 21.7 0.00 0.00 0.00 68 1014.5
20260506031041 47 360 16.5 25.2 0.00 0.00 0.00 67 1014.4
20260506030540 47 335 16.5 25.2 0.00 0.00 0.00 65 1014.3
20260506030042 48 360 17.4 21.7 0.00 0.00 0.00 64 1014.2
20260506025539 48 348 13.9 20.9 0.00 0.00 0.00 62 1014.2
20260506025036 49 342 14.8 20.9 0.00 0.00 0.00 61 1014.3
20260506024547 49 350 14.8 20.9 0.00 0.00 0.00 61 1014.1
20260506024036 49 323 11.3 19.1 0.00 0.00 0.00 62 1014.3
20260506023538 49 331 10.4 15.6 0.00 0.00 0.00 62 1014.0
20260506023057 48 279 5.2 7.8 0.00 0.00 0.00 62 1013.7
20260506022536 48 265 5.2 7.0 0.00 0.00 0.00 61 1013.6
20260506022037 48 272 3.5 6.1 0.00 0.00 0.00 60 1013.6
20260506021555 49 280 3.5 6.1 0.00 0.00 0.00 60 1013.6
20260506021038 49 277 3.5 5.2 0.00 0.00 0.00 59 1013.6
20260506020539 49 290 3.5 6.1 0.00 0.00 0.00 59 1013.6
20260506020043 50 307 3.5 7.0 0.00 0.00 0.00 59 1013.6
20260506015537 50 294 4.3 8.7 0.00 0.00 0.00 58 1013.6
20260506015039 51 284 5.2 9.6 0.00 0.00 0.00 57 1013.6
20260506014545 51 286 6.1 11.3 0.00 0.00 0.00 56 1013.4
20260506014040 51 288 7.0 13.0 0.00 0.00 0.00 56 1013.3
20260506013536 51 306 8.7 13.9 0.00 0.00 0.00 55 1013.4
20260506013040 51 292 8.7 16.5 0.00 0.00 0.00 54 1013.3
20260506012538 52 288 10.4 16.5 0.00 0.00 0.00 53 1013.2
20260506012039 53 300 13.0 19.1 0.00 0.00 0.00 51 1013.0
20260506011537 53 290 11.3 19.1 0.00 0.00 0.00 51 1013.2
20260506011040 53 306 13.0 18.2 0.00 0.00 0.00 48 1013.4
20260506010538 53 300 10.4 17.4 0.00 0.00 0.00 48 1013.0
20260506010055 53 281 8.7 12.2 0.00 0.00 0.00 51 1012.8
20260506005537 54 273 8.7 12.2 0.00 0.00 0.00 51 1012.8
20260506005041 54 276 8.7 12.2 0.00 0.00 0.00 50 1012.6
20260506004552 54 278 7.0 13.9 0.00 0.00 0.00 50 1012.8
20260506004038 54 276 9.6 16.5 0.00 0.00 0.00 49 1012.9
20260506003538 55 277 10.4 16.5 0.00 0.00 0.00 47 1012.9
20260506003050 55 258 10.4 17.4 0.00 0.00 0.00 47 1012.9
20260506002538 56 282 10.4 17.4 0.00 0.00 0.00 46 1012.5
20260506002038 56 276 12.2 20.0 0.00 0.00 0.00 45 1012.7
20260506001553 57 281 12.2 20.0 0.00 0.00 0.00 44 1012.8
20260506001038 58 277 11.3 18.2 0.00 0.00 0.00 42 1012.8
20260506000539 58 269 13.0 18.2 0.00 0.00 0.00 41 1012.8
20260506000052 58 281 10.4 18.2 0.00 0.00 0.00 43 1012.7
20260505235541 58 262 13.0 19.1 0.00 0.00 0.00 43 1012.8
20260505235038 58 267 13.0 19.1 0.00 0.00 0.00 42 1012.7
20260505234602 58 253 13.9 19.1 0.00 0.00 0.00 41 1012.8
20260505234042 58 235 13.0 17.4 0.00 0.00 0.00 41 1012.7
20260505233541 58 245 8.7 15.6 0.00 0.00 0.00 43 1012.8
20260505233047 57 257 8.7 13.9 0.00 0.00 0.00 47 1012.9
20260505232538 58 257 11.3 13.0 0.00 0.00 0.00 46 1012.9
20260505232040 58 283 9.6 14.8 0.00 0.00 0.00 44 1013.0
20260505231549 57 292 11.3 14.8 0.00 0.00 0.00 44 1013.0
20260505231038 56 263 8.7 14.8 0.00 0.00 0.00 50 1012.9
20260505230538 56 247 9.6 14.8 0.00 0.00 0.00 49 1012.8
20260505230047 57 246 9.6 13.0 0.00 0.00 0.00 49 1012.8
20260505225538 56 265 8.7 13.0 0.00 0.00 0.00 51 1012.7
20260505225039 56 268 8.7 14.8 0.00 0.00 0.00 51 1012.9
20260505224548 56 275 10.4 17.4 0.00 0.00 0.00 51 1012.8
20260505224040 55 271 12.2 20.9 0.00 0.00 0.00 52 1013.0
20260505223537 55 278 14.8 27.8 0.00 0.00 0.00 52 1013.3
20260505223044 56 277 18.2 27.8 0.00 0.00 0.00 49 1013.4
20260505222545 57 268 18.2 25.2 0.00 0.00 0.00 48 1013.4
20260505222038 57 265 13.9 21.7 0.00 0.00 0.00 49 1013.4
20260505221547 57 292 15.6 21.7 0.00 0.00 0.00 47 1013.3
20260505221038 57 276 14.8 21.7 0.00 0.00 0.00 46 1013.5
20260505220542 57 276 13.0 19.1 0.00 0.00 0.00 48 1013.4
20260505220051 56 248 11.3 18.2 0.00 0.00 0.00 51 1013.4
20260505215538 56 304 7.0 17.4 0.00 0.00 0.00 51 1013.3
20260505215042 56 282 7.0 11.3 0.00 0.00 0.00 52 1013.4
20260505214604 56 305 6.1 10.4 0.00 0.00 0.00 52 1013.3
20260505214038 55 288 2.6 9.6 0.00 0.00 0.00 53 1013.4
20260505213541 55 321 4.3 11.3 0.00 0.00 0.00 54 1013.4
20260505213056 56 279 7.0 11.3 0.00 0.00 0.00 53 1013.6
20260505212542 56 291 4.3 13.9 0.00 0.00 0.00 54 1013.6
20260505212042 56 280 7.8 16.5 0.00 0.00 0.00 54 1013.6
20260505211549 56 300 9.6 17.4 0.00 0.00 0.00 53 1013.7
20260505211038 56 247 10.4 17.4 0.00 0.00 0.00 53 1013.8
20260505210540 55 217 7.8 11.3 0.00 0.00 0.00 56 1013.7
20260505210057 55 238 6.1 12.2 0.00 0.00 0.00 55 1013.7
20260505205542 56 276 7.8 12.2 0.00 0.00 0.00 55 1013.8
20260505205040 55 302 6.1 12.2 0.00 0.00 0.00 56 1013.9
20260505204558 55 284 7.0 12.2 0.00 0.00 0.00 56 1014.1
20260505204038 55 292 8.7 12.2 0.00 0.00 0.00 55 1014.2
20260505203538 56 268 7.8 12.2 0.00 0.00 0.00 54 1014.2
20260505203052 56 252 8.7 14.8 0.00 0.00 0.00 55 1014.3